www.pogodaiklimat.ru

Погода и климат >> Архив погоды >> Пакистан >> Бахавалпур


ПОГОДА в Бахавалпуре

  • Прогноз погоды в Бахавалпуре
  • Монитор погоды в Бахавалпуре

АРХИВ ПОГОДЫ в Бахавалпуре

Время (UTC), дата Ветер
(напр.,м/с)
 
Видим.   Явления Облачность Т
(С)
Тd
(С)
f
(%)
Тe
(С)
Тes
(С)
Комфортность P
(гПа)
Po
(гПа)
Тmin
(С)
Tmax
(С)
R
(мм)
R24
(мм)
S
(см)
09 19.06 штиль 0 4000 м мгла ясно +36.5 +23.8 48 +47 +72 опасность
перегрева
998.4 1000.0
12 19.06 ЮВ 1 4000 м мгла 3/0
[Ac trans]
+37.0 +24.4 49 +49 +54 опасность
перегрева
996.2 984.4 +37.3
15 19.06 штиль 0 2000 м дым ясно +34.0 +23.9 56 +46 +46 опасность
перегрева
997.1 1000.0
18 19.06 С 1 2000 м дым 4/0
[Ac trans]
+31.5 +22.9 60 +41 +41 опасность
перегрева
999.6 987.0
21 19.06 С 2 1000 м дым 4/0
[Ac trans]
+30.0 +22.8 65 +40 +40 очень
душно
998.4 1000.0
00 20.06 штиль 0 1000 м дым ясно +28.0 +22.9 74 +37 +37 очень
душно
998.6 986.3
03 20.06 штиль 0 2000 м дым 3/0
[Ac trans]
+32.0 +25.0 67 +46 +53 опасность
перегрева
1000.0 987.8 +27.1
06 20.06 ЮЗ 1 4000 м мгла 3/0
[Ac trans]
+36.5 +23.0 46 +46 +66 опасность
перегрева
1000.1 1000.0
09 20.06 З 2 4000 м мгла 1/0
[Ac trans]
+39.0 +21.8 37 +46 +64 опасность
перегрева
998.4 986.1
12 20.06 ЮЗ 1 4000 м мгла 5/1 1200 м
[Sc Ac trans]
+40.0 +23.1 38 +49 +52 опасность
перегрева
996.0 984.2 +40.3
15 20.06 С 6 2000 м пыльный позёмок {гроза} 8/3 1200 м
[Sc Ac As]
+29.0 +22.4 68 +38 +38 очень
душно
997.9 1000.0 1
18 20.06 С 6 2000 м дым {гроза} 8/3 1200 м
[Sc Ac As]
+28.0 +22.1 70 +36 +36 очень
душно
1000.0 987.3 2
21 20.06 С 2 1000 м дым 5/0
[Ac As]
+26.5 +21.3 73 +34 +34 очень
душно
998.6 1000.0
00 21.06 С 1 1000 м дым 8/3 1200 м
[Sc Ac trans]
+25.0 +22.0 83 +32 +32 очень
душно
1002.3 989.8
03 21.06 СВ 1 2000 м дым 8/3 1200 м
[Sc Ac trans]
+25.0 +22.0 83 +32 +35 очень
душно
1002.8 990.3 +24.9
06 21.06 СВ 1 4000 м дым 3/0
[Ac trans]
+32.5 +22.4 55 +42 +61 опасность
перегрева
1002.8 1000.0
09 21.06 СВ 1 2000 м мгла ясно +37.0 +22.8 44 +46 +68 опасность
перегрева
1001.2 1000.0
12 21.06 штиль 0 2000 м мгла ясно +36.5 +23.0 46 +46 +52 опасность
перегрева
998.4 986.4 +37.3
15 21.06 С 1 2000 м дым 3/0
[Ac trans]
+33.5 +22.7 53 +43 +43 опасность
перегрева
998.8 1000.0
18 21.06 С 1 2000 м дым 5/0
[Ac trans]
+31.5 +22.9 60 +41 +41 опасность
перегрева
999.8 1000.0
21 21.06 штиль 0 2000 м дым 6/3 1200 м
[Sc Ac trans]
+30.0 +22.8 65 +40 +40 очень
душно
999.3 1000.0
00 22.06 штиль 0 2000 м дым 6/1 1200 м
[Sc Ac trans]
+28.0 +22.9 74 +37 +37 очень
душно
999.2 986.9
03 22.06 штиль 0 2000 м дым 4/0
[Ac trans]
+32.5 +24.8 64 +46 +53 опасность
перегрева
1000.4 988.3 +24.9
06 22.06 штиль 0 2000 м мгла 4/0
[Ac trans]
+37.0 +23.6 46 +47 +68 опасность
перегрева
1000.8 1000.0
09 22.06 штиль 0 2000 м мгла 3/0
[Ac trans]
+40.0 +23.9 40 +51 +71 опасность
перегрева
998.9 1000.0
12 22.06 Ю 5 2000 м пыльный позёмок 6/6 1200 м
[Sc diur, vesp]
+39.0 +22.7 39 +48 +49 опасность
перегрева
997.0 985.2 +40.9
15 22.06 штиль 0 2000 м мгла 3/0
[Ac trans]
+34.5 +21.4 47 +42 +42 опасность
перегрева
997.4 1000.0
18 22.06 З 1 2000 м дым 8/3 1200 м
[Sc Ac trans]
+32.5 +21.5 52 +40 +40 очень
душно
999.2 1000.0
21 22.06 С 1 2000 м дым 8/3 1200 м
[Sc Ac trans]
+30.5 +22.5 62 +40 +40 очень
душно
998.7 1000.0
00 23.06 С 1 2000 м дым 8/3 1200 м
[Sc Ac trans]
+29.0 +22.4 68 +38 +38 очень
душно
998.5 986.3
03 23.06 штиль 0 2000 м дым 5/0
[Ac trans]
+32.5 +24.0 61 +44 +51 опасность
перегрева
999.0 986.9 +28.9
06 23.06 ЮЗ 1 2000 м мгла 1/0
[Ac trans]
+39.5 +22.4 38 +48 +72 опасность
перегрева
998.8 1000.0
09 23.06 ЮЗ 1 4000 м мгла 1/0
[Ac trans]
+41.0 +22.6 35 +49 +71 опасность
перегрева
997.0 1000.0
12 23.06 штиль 0 4000 м мгла 1/0
[Ac trans]
+42.0 +22.1 32 +49 +55 опасность
перегрева
994.7 983.1 +42.2 +42.2
15 23.06 СВ 7 500 м пыльная буря 3/0
[Ac trans]
+35.0 +18.3 37 +39 +39 очень
душно
995.7 1000.0
18 23.06 СВ 4 1000 м пыльный позёмок 4/0
[Ac trans]
+29.0 +20.8 61 +36 +36 очень
душно
1002.9 1000.0
21 23.06 СВ 4 1000 м дым 4/0
[Ac trans]
+29.0 +20.8 61 +36 +36 очень
душно
999.9 987.2
00 24.06 СВ 4 1000 м пыльный позёмок 8/3 1200 м
[Sc Ac trans]
+28.0 +21.3 67 +35 +35 очень
душно
1001.3 989.0
03 24.06 СЗ 2 1000 м гроза, ливневой дождь 10/1 900 м
[Cb cap Ac As]
+25.0 +23.5 91 +34 +35 очень
душно
1005.0 992.5 +24.3 8
06 24.06 С 1 2000 м дым {гроза, дождь} 10/4 1200 м
[Sc Ac As]
+24.5 +22.3 88 +32 +35 очень
душно
1003.0 1000.0 13
09 24.06 СВ 1 4000 м дым 9/4 1200 м
[Sc Ac As]
+29.0 +24.8 78 +41 +46 опасность
перегрева
1002.4 1000.0
12 24.06 СВ 1 2000 м дым 8/4 1200 м
[Sc Ac trans]
+31.0 +25.4 72 +45 +47 опасность
перегрева
1000.7 988.5 +31.3
15 24.06 штиль 0 2000 м дым 3/0
[Ac trans]
+29.5 +24.5 75 +42 +42 опасность
перегрева
1001.1 1000.0
18 24.06 СВ 1 2000 м дым 3/0
[Ac trans]
+28.5 +23.5 74 +39 +39 очень
душно
1003.7 1000.0
21 24.06 штиль 0 2000 м дым 3/0
[Ac trans]
+27.0 +22.6 77 +36 +36 очень
душно
1002.3 1000.0
00 25.06 штиль 0 1000 м дымка 3/0
[Ac trans]
+25.0 +22.0 83 +32 +32 очень
душно
1002.0 989.5
03 25.06 штиль 0 1000 м дым 3/0
[Ac trans]
+29.0 +25.5 81 +43 +50 опасность
перегрева
1002.5 990.3 +22.9
06 25.06 СВ 1 4000 м дым ясно +33.5 +24.4 59 +46 +70 опасность
перегрева
1002.6 1000.0
09 25.06 СВ 1 4000 м дым ясно +35.5 +24.3 52 +47 +69 опасность
перегрева
1001.7 1000.0
12 25.06 штиль 0 4000 м мгла ясно +36.5 +21.2 41 +44 +50 опасность
перегрева
999.4 987.4 +37.2
15 25.06 штиль 0 2000 м дым ясно +34.0 +23.3 54 +45 +45 опасность
перегрева
999.5 1000.0
18 25.06 штиль 0 2000 м дым ясно +31.5 +23.6 63 +43 +43 опасность
перегрева
1000.4 1000.0
21 25.06 штиль 0 2000 м дым ясно +29.5 +23.0 68 +39 +39 очень
душно
999.9 1000.0
00 26.06 штиль 0 2000 м дым ясно +28.0 +22.9 74 +37 +37 очень
душно
999.2 987.0
03 26.06 штиль 0 2000 м дым ясно +32.5 +25.5 67 +47 +56 опасность
перегрева
999.8 987.7 +27.9
06 26.06 ЮЗ 1 4000 м дым ясно +37.0 +25.2 51 +51 +76 опасность
перегрева
999.7 1000.0

 

Местоположение метеостанции Бахавалпур (Пакистан): широта 29.40 долгота 71.78 высота над уровнем моря 113 м.

В архиве по умолчанию представлена погода в Бахавалпуре за последнюю неделю. Архивные данные за месяц целиком и за предыдущие месяцы, начиная с января 2011 года, Вы можете получить, выбрав интересующий диапазон дат из раскрывающегося списка и нажав кнопку "Ввод!".


*Определитесь, кто Вы:
робот инопланетянин человек

Внимание! Время в таблицах - всемирное. Для получения местного времени необходимо прибавить поправку, которая равна 5 ч.

Смотрите также архив погоды в соседних городах и на ближайших метеорологических станциях:

Погода в Мултане (Пакистан) (95 км)
Погода в Ханевале (Пакистан) (101 км)
Погода в Дера Гази Хан (Пакистан) (133 км)
Погода в Ханпуре (Пакистан) (136 км)
Погода в Кот Адду (Пакистан) (142 км)
Погода в Бахавалнагаре (Пакистан) (155 км)
Погода на Авиабазе Raifiqui (Пакистан) (159 км)
Погода в Рахим Яр Хан (Пакистан) (178 км)
Погода в Сахивале (Пакистан) (184 км)
Погода в Тоба Тек Сингх (Пакистан) (188 км)

Пояснения к столбцам:

Ветер - указаны скорость ветра в м/с - средняя за 10 мин, порывы в срок и между сроками (в фигурных скобках) и направление, откуда дует ветер: С - северный, СВ - северо-восточный, В - восточный, ЮВ - юго-восточный, Ю - южный, ЮЗ - юго-западный, З - западный, СЗ - северо-западный.
Видимость - горизонтальная дальность видимости в метрах или километрах. При видимости от 1 до 10 км при отсутствии осадков обычно наблюдается дымка, при ухудшении видимости до 1 км и менее - туман. В сухую погоду видимость может ухудшаться дымом, пылью или мглою.
Явления - указаны атмосферные явления, наблюдавшиеся в срок или в последний час перед сроком; фигурными скобками обозначены явления, наблюдавшиеся между сроками (за 1-3 часа до срока); квадратными скобками обозначены град или гололедные отложения с указанием их диаметра в мм.
Облачность - указаны через наклонную черту общая и нижняя облачность в баллах и высота нижней границы облаков в метрах; квадратными скобками обозначены формы облаков: Ci - перистые, Cs - перисто-слоистые, Cc - перисто-кучевые, Ac - высококучевые, As - высокослоистые, Sc - слоисто-кучевые, Ns - слоисто-дождевые, Cu - кучевые, Cb - кучево-дождевые. Подробнее классификацию облаков см. в Атласе облаков (PDF).
T - Температура воздуха - температура, измеренная на высоте 2 м над землей.
Td - Температура точки росы - температура, при понижении до которой содержащийся в воздухе водяной пар достигнет насыщения.
f - Относительная влажность воздуха - влажноcть воздуха, измеренная на высоте 2 м над землей.
Te - Эффективная температура - температура, которую ощущает одетый по сезону человек в тени. Характеристика душности погоды. При расчете учитывается влияние влажности воздуха и скорости ветра на теплоощущения человека.
Tes - Эффективная температура на солнце - температура, которую ощущает человек, с поправкой на солнечный нагрев. Характеристика знойности погоды. Зависит от высоты солнца над горизонтом, облачности и скорости ветра. Ночью, в пасмурную погоду, а также при ветре 12 м/с и более поправка равна нулю.
P - Атмосферное давление - приведенное к уровню моря атмосферное давление.
Po - Атмосферное давление - измеренное на уровне метеостанции атмосферное давление.
Tmin - Минимальная температура - минимум температуры воздуха на высоте 2 м над землей.
Tmax - Максимальная температура - максимум температуры воздуха на высоте 2 м над землей.
R - Количество осадков - Количество выпавших осадков за период времени, мм. При наведении курсора мыши на число - период времени, за который выпало указанное количество осадков.
R24 - Количество осадков - Количество выпавших осадков за 24 часа, мм.
S - Снежный покров - Высота снежного покрова, см. При наведении курсора мыши на число - состояние снежного покрова и степень покрытия местности в баллах.